Regional Weather Roundup
Issued by NWS San Angelo, TX

Home | Current Version | Previous Version | Text Only | Print | Product List | Glossary On
Versions: 1 2 3 4 5 6 7 8 9 10 11 12 13 14 15 16 17 18 19 20 21 22 23 24 25 26 27 28 29 30 31 32 33 34 35 36 37 38 39 40 41 42 43 44 45 46 47 48 49 50
000
ASUS44 KSJT 300811
RWRSJT
WEST CENTRAL TEXAS REGIONAL WEATHER ROUNDUP
NATIONAL WEATHER SERVICE SAN ANGELO TX
300 AM CDT FRI SEP 30 2016

NOTE: "FAIR" INDICATES FEW OR NO CLOUDS BELOW 12,000 FEET WITH NO
SIGNIFICANT WEATHER AND/OR OBSTRUCTIONS TO VISIBILITY.

TXZ049-054-064>066-071>073-076>078-098-099-113-114-127-128-139-140-
154-155-168>170-300900
...LOCATIONS ACROSS WEST CENTRAL TEXAS...

CITY           SKY/WX    TMP DP  RH WIND       PRES   REMARKS
SAN ANGELO     PTCLDY    57  53  86 CALM      30.27S
ABILENE        CLEAR     53  49  86 S5        30.28S
DYESS AFB      CLEAR     50  48  91 SW3       30.27F
JUNCTION       CLOUDY    59  50  72 CALM      30.25S
SWEETWATER     CLEAR     57  49  73 E5        30.31S
BROWNWOOD      CLEAR     52  48  87 CALM      30.26S
COLEMAN        SUNNY     56  49  75 N5        30.27S
SONORA         CLEAR     59  50  72 N3        30.30S
OZONA          FAIR      61  46  59 NE5       30.30S
BRADY          NOT AVBL
$$

TEXAS PANHANDLE/OKLAHOMA PANHANDLE

CITY           SKY/WX    TMP DP  RH WIND       PRES   REMARKS
AMARILLO       CLEAR     52  43  71 S12       30.31S
BORGER         CLEAR     55  44  66 S5        30.30R
CANADIAN       CLEAR     51  47  88 CALM      30.30S
DALHART        CLEAR     51  44  77 S9        30.31R
DUMAS          SUNNY     49  42  76 S8        30.30R
GUYMON         NOT AVBL
HEREFORD       NOT AVBL
PAMPA          SUNNY     51  46  82 SE8       30.32R
PERRYTON       CLEAR     52  46  79 SE7       30.29S
$$

SOUTHERN PANHANDLE/SOUTH PLAINS/ROLLING PLAINS

CITY           SKY/WX    TMP DP  RH WIND       PRES   REMARKS
LUBBOCK        MOCLDY    54  47  77 SE6       30.31S
SNYDER           N/A     57  46  68 E3        30.30S
CHILDRESS      CLEAR     55  48  77 SE3       30.29S
SEMINOLE       SUNNY     53  49  87 CALM      30.32S
$$

PERMIAN BASIN

CITY           SKY/WX    TMP DP  RH WIND       PRES   REMARKS
MIDLAND        CLEAR     60  49  66 E6        30.29S
ODESSA         CLEAR     59  48  67 E7        30.30S
WINK           CLEAR     61  50  67 E7        30.27R
$$

FAR WEST/SOUTHWEST MOUNTAINS/TRANS PECOS

CITY           SKY/WX    TMP DP  RH WIND       PRES   REMARKS
ALPINE         CLOUDY    58  51  76 CALM      30.38F
DRYDEN           N/A     66  56  70 N8        30.23S
EL PASO        CLOUDY    72  45  37 E6        30.26F
FORT STOCKTON  PTCLDY    62  54  74 SE6       30.27F
GUADALUPE PASS CLOUDY    59  47  64 NE24      30.38F
MARFA          CLEAR     54  51  90 N8        30.35F
PECOS          SUNNY     60  54  78 E8        30.26F
$$

DALLAS/FORT WORTH METROPLEX

CITY           SKY/WX    TMP DP  RH WIND       PRES   REMARKS
DFW AIRPORT    CLEAR     60  52  74 N8        30.20F
FTW MEACHAM    CLEAR     59  50  72 N8        30.22S
DAL-EXECUTIVE  CLEAR     58  52  80 N3        30.20F
GRAND PRAIRIE  CLEAR     62  53  71 N3        30.22F
ADDISON        CLEAR     63  52  67 N6        30.22F
MESQUITE       SUNNY     59  53  79 N3        30.21S
LANCASTER      SUNNY     59  48  67 N6        30.21F
$$

NORTH CENTRAL TEXAS

CITY           SKY/WX    TMP DP  RH WIND       PRES   REMARKS
SHRMAN/DENISON SUNNY     56  52  87 CALM      30.23F
GAINESVILLE      N/A     54  50  86 NW3       30.25S
BRIDGEPORT     SUNNY     52  52 100 CALM      30.26R
DENTON         CLEAR     52  50  93 NW6       30.22F
WAXAHACHIE     SUNNY     56  51  83 N6        30.22F
GRANBURY       SUNNY     55  51  84 W3        30.25S
$$

WESTERN NORTH TEXAS

CITY           SKY/WX    TMP DP  RH WIND       PRES   REMARKS
WICHITA FALLS  CLEAR     55  49  80 NW6       30.25S
VERNON         SUNNY     56  46  69 CALM      30.28R
BRECKENRIDGE   SUNNY     54  52  94 CALM      30.25F
COMANCHE       CLEAR     56  51  83 NW3       30.26S
$$

CENTRAL AND SOUTH CENTRAL TEXAS

CITY           SKY/WX    TMP DP  RH WIND       PRES   REMARKS
AUSTIN/BERGSTM CLEAR     56  52  86 N8        30.18F
WACO           CLEAR     56  52  86 N8        30.20F
HILLSBORO      SUNNY     53  49  88 N6        30.21S
TEMPLE         PTCLDY    53  50  89 N7        30.20F
KILLEEN-GRAY   CLEAR     57  51  79 N9        30.19F
FORT HOOD      CLEAR     55  50  83 N8        30.18S
GEORGETOWN     CLEAR    N/A N/A N/A N6        30.17S
LAGO VISTA     FAIR      59  50  72 N7        30.21S
SAN MARCOS     CLEAR     57  52  82 N6        30.21S
NEW BRAUNFELS  CLEAR     61  51  70 N7        30.18S
RANDOLPH AFB   CLEAR     58  54  84 N5        30.19S
SAN ANTONIO    CLEAR     62  52  69 N6        30.20S
STINSON        CLEAR     65  51  60 N6        30.17F
PLEASANTON     NOT AVBL
LA GRANGE      CLEAR     61  55  82 CALM      30.15S
GIDDINGS       SUNNY     57  52  84 CALM      30.21S
$$

EAST TEXAS

CITY           SKY/WX    TMP DP  RH WIND       PRES   REMARKS
PARIS          CLEAR     55  46  71 N8        30.20S
CLARKSVILLE    NOT AVBL
TYLER          CLEAR     56  51  84 NW3       30.18F
LONGVIEW       CLEAR     53  51  93 CALM      30.16F
PALESTINE      SUNNY     55  53  94 CALM      30.19S
NACOGDOCHES    CLEAR     52  48  87 CALM      30.15S
$$

TEXAS HILL COUNTRY AND EDWARDS PLATEAU

CITY           SKY/WX    TMP DP  RH WIND       PRES   REMARKS
LLANO          CLOUDY    55  55 100 CALM      30.26S
HORSESHOE BAY  FAIR      53  51  94 CALM      30.22S
KERRVILLE      CLEAR     54  51  90 N3        30.23S
FREDERICKSBRG  CLEAR     54  49  85 CALM      30.24R
ROCKSPRINGS    SUNNY     61  48  63 CALM      30.27R
HONDO          CLEAR     58  52  80 NE9       30.20R
UVALDE         SUNNY     62  56  79 CALM      30.22R
DEL RIO        PTCLDY    67  59  75 CALM      30.19R
$$

SOUTHEAST TEXAS

CITY           SKY/WX    TMP DP  RH WIND       PRES   REMARKS
COLLEGE STN    CLEAR     63  52  67 N8        30.17S
CALDWELL       NOT AVBL
CROCKETT       NOT AVBL
BRENHAM        CLEAR     61  54  77 CALM      30.18S
HUNTSVILLE     CLEAR     56  52  86 CALM      30.16F
CONROE         CLEAR     53  52  96 CALM      30.16S
HOUSTON BUSH   CLEAR     61  55  81 CALM      30.15S
HOUSTON HOBBY  CLEAR     65  53  65 NE6       30.14S
PERLAND        CLEAR     66  55  67 NE6       30.15S
WHARTON        SUNNY     60  54  82 CALM      30.15F
$$

THE UPPER TEXAS COAST

CITY           SKY/WX    TMP DP  RH WIND       PRES   REMARKS
ORANGE         MOSUNNY   59  52  78 N3        30.14F
PORT ARTHUR    CLEAR     60  54  80 N5        30.12S
GALVESTON      CLEAR     70  57  63 NE17      30.14R
ANGLETON       CLEAR     62  57  83 N6        30.14R
BAY CITY       MOSUNNY   63  58  82 N3        30.14S
$$

TEXAS COASTAL BEND, RIO GRANDE PLAINS DEEP SOUTH TEXAS

CITY           SKY/WX    TMP DP  RH WIND       PRES   REMARKS
VICTORIA       CLEAR     55  53  93 NW6       30.16R
BEEVILLE       FAIR      64  56  77 NE7       30.15S
ROCKPORT       CLEAR     68  59  73 NE8       30.13S
PORT ARANSAS   SUNNY     73  61  65 NE12      30.12S
PORT LAVACA    SUNNY     62  58  86 N8        30.15S
CORPUS CHRISTI PTCLDY    72  59  63 NE13      30.13S
KINGSVILLE NAS CLEAR     67  61  81 N7        30.13S
COTULLA        CLEAR     68  53  58 E6        30.18R
LAREDO         PTCLDY    70  59  68 NE9       30.16S
BROWNSVILLE    CLEAR     73  69  87 N5        30.08S
PORT ISABEL    PTCLDY    74  71  91 NW6       30.07F
HEBBRONVILLE   SUNNY     68  59  71 NE6       30.16S
MCALLEN        MOCLDY    74  66  76 N5        30.10S
WESLACO        PTCLDY    72  66  80 CALM      30.08F
FALFURRIAS     SUNNY     70  58  64 N7        30.13S
EDINBURG       SUNNY     72  64  75 N6        30.11S
$$



USA.gov is the U.S. government's official web portal to all federal, state and local government web resources and services.